When you browse on this site, cookies collect data to enhance your experience and personalize the content and advertising you see.
Visit our Privacy Policy to learn more. By continuing to use the site, you agree to this use of cookies and data.

Hourly Weather Saint-Genis-Laval

Today, 11 July, Saturday

Time Temperature Precipitation Wind Pressure Humidity
00:00 +19°C° 0 mm 2 mps 745 mmHg 89%
01:00 +19°C° 0 mm 2 mps 745 mmHg 89%
02:00 +18°C° 0 mm 2 mps 745 mmHg 90%
03:00 +18°C° 0 mm 2 mps 745 mmHg 91%
04:00 +18°C° 0 mm 3 mps 745 mmHg 89%
05:00 +18°C° 0 mm 3 mps 745 mmHg 87%
06:00 +18°C° 0 mm 3 mps 746 mmHg 86%
07:00 +19°C° 0 mm 3 mps 746 mmHg 78%
08:00 +20°C° 0 mm 4 mps 746 mmHg 70%
09:00 +22°C° 0 mm 4 mps 746 mmHg 63%
10:00 +23°C° 0 mm 4 mps 746 mmHg 58%
11:00 +25°C° 0 mm 4 mps 746 mmHg 53%
12:00 +26°C° 0 mm 5 mps 746 mmHg 48%
13:00 +26°C° 0 mm 5 mps 746 mmHg 46%
14:00 +26°C° 0 mm 5 mps 746 mmHg 45%
15:00 +26°C° 0 mm 5 mps 746 mmHg 43%
16:00 +25°C° 0 mm 5 mps 746 mmHg 47%
17:00 +23°C° 0 mm 5 mps 746 mmHg 52%
18:00 +22°C° 0 mm 4 mps 746 mmHg 56%
19:00 +20°C° 0 mm 4 mps 746 mmHg 59%
20:00 +19°C° 0 mm 4 mps 747 mmHg 63%
21:00 +17°C° 0 mm 3 mps 747 mmHg 67%
22:00 +16°C° 0 mm 3 mps 747 mmHg 70%
23:00 +16°C° 0 mm 3 mps 747 mmHg 73%

Tomorrow, 12 July, Sunday

Time Temperature Precipitation Wind Pressure Humidity
00:00 +14°C° 0 mm 3 mps 747 mmHg 77%
01:00 +14°C° 0 mm 2 mps 747 mmHg 79%
02:00 +13°C° 0 mm 2 mps 746 mmHg 82%
03:00 +13°C° 0 mm 2 mps 746 mmHg 85%
04:00 +13°C° 0 mm 2 mps 746 mmHg 82%
05:00 +14°C° 0 mm 2 mps 746 mmHg 80%
06:00 +15°C° 0 mm 2 mps 747 mmHg 78%
07:00 +17°C° 0 mm 2 mps 747 mmHg 71%
08:00 +19°C° 0 mm 2 mps 746 mmHg 65%
09:00 +21°C° 0 mm 2 mps 746 mmHg 58%
10:00 +23°C° 0 mm 2 mps 746 mmHg 54%
11:00 +25°C° 0 mm 3 mps 746 mmHg 50%
12:00 +26°C° 0 mm 3 mps 746 mmHg 45%
13:00 +27°C° 0 mm 3 mps 746 mmHg 44%
14:00 +27°C° 0 mm 3 mps 746 mmHg 43%
15:00 +28°C° 0 mm 3 mps 746 mmHg 42%
16:00 +27°C° 0 mm 3 mps 746 mmHg 47%
17:00 +26°C° 0 mm 3 mps 746 mmHg 51%
18:00 +25°C° 0 mm 3 mps 745 mmHg 56%
19:00 +23°C° 0 mm 2 mps 746 mmHg 59%
20:00 +20°C° 0 mm 2 mps 746 mmHg 61%
21:00 +19°C° 0 mm 1 mps 746 mmHg 63%
22:00 +19°C° 0 mm 1 mps 746 mmHg 66%
23:00 +18°C° 0 mm 1 mps 746 mmHg 69%

Day after tomorrow, 13 July, Monday

Time Temperature Precipitation Wind Pressure Humidity
00:00 +16°C° 0 mm 1 mps 746 mmHg 72%
01:00 +16°C° 0 mm 1 mps 746 mmHg 75%
02:00 +15°C° 0 mm 1 mps 746 mmHg 77%
03:00 +15°C° 0 mm 1 mps 746 mmHg 79%
04:00 +16°C° 0 mm 1 mps 746 mmHg 76%
05:00 +18°C° 0 mm 1 mps 746 mmHg 74%
06:00 +16°C° 0 mm 0 mps 746 mmHg 72%
07:00 +20°C° 0 mm 1 mps 746 mmHg 65%
08:00 +22°C° 0 mm 1 mps 745 mmHg 59%
09:00 +24°C° 0 mm 1 mps 745 mmHg 53%
10:00 +26°C° 0 mm 2 mps 745 mmHg 49%
11:00 +27°C° 0 mm 2 mps 745 mmHg 46%
12:00 +28°C° 0 mm 2 mps 745 mmHg 42%
13:00 +29°C° 0 mm 2 mps 744 mmHg 41%
14:00 +29°C° 0 mm 3 mps 744 mmHg 40%
15:00 +29°C° 0 mm 3 mps 744 mmHg 39%
16:00 +28°C° 0 mm 3 mps 744 mmHg 44%
17:00 +27°C° 0 mm 3 mps 744 mmHg 48%
18:00 +26°C° 0 mm 2 mps 744 mmHg 52%
19:00 +24°C° 0 mm 2 mps 744 mmHg 57%
20:00 +21°C° 0 mm 2 mps 744 mmHg 61%
21:00 +19°C° 0 mm 2 mps 744 mmHg 66%
22:00 +18°C° 0 mm 2 mps 744 mmHg 70%
23:00 +17°C° 0 mm 2 mps 744 mmHg 74%

14 July, Tuesday

Time Temperature Precipitation Wind Pressure Humidity
00:00 +17°C° 0 mm 2 mps 744 mmHg 78%
01:00 +16°C° 0 mm 2 mps 744 mmHg 80%
02:00 +16°C° 0 mm 1 mps 744 mmHg 82%
03:00 +15°C° 0 mm 1 mps 743 mmHg 83%
04:00 +16°C° 0 mm 1 mps 744 mmHg 81%
05:00 +18°C° 0 mm 1 mps 744 mmHg 78%
06:00 +18°C° 0 mm 1 mps 744 mmHg 75%
07:00 +20°C° 0 mm 1 mps 743 mmHg 68%
08:00 +21°C° 0 mm 2 mps 743 mmHg 61%
09:00 +24°C° 0 mm 2 mps 743 mmHg 54%
10:00 +25°C° 0 mm 2 mps 743 mmHg 50%
11:00 +26°C° 0 mm 2 mps 743 mmHg 45%
12:00 +27°C° 0 mm 3 mps 743 mmHg 41%
13:00 +27°C° 0 mm 3 mps 742 mmHg 40%
14:00 +27°C° 0 mm 3 mps 742 mmHg 39%
15:00 +28°C° 0 mm 3 mps 742 mmHg 37%
16:00 +27°C° 0 mm 3 mps 742 mmHg 42%
17:00 +26°C° 0 mm 2 mps 742 mmHg 46%
18:00 +25°C° 0 mm 2 mps 742 mmHg 51%
19:00 +23°C° 0 mm 2 mps 743 mmHg 55%
20:00 +21°C° 0 mm 2 mps 743 mmHg 59%
21:00 +19°C° 0 mm 2 mps 743 mmHg 63%
22:00 +18°C° 0 mm 2 mps 743 mmHg 67%
23:00 +17°C° 0 mm 2 mps 743 mmHg 71%

15 July, Wednesday

Time Temperature Precipitation Wind Pressure Humidity
00:00 +17°C° 0 mm 2 mps 744 mmHg 75%
01:00 +16°C° 0 mm 2 mps 743 mmHg 76%
02:00 +16°C° 0 mm 1 mps 743 mmHg 78%
03:00 +15°C° 0 mm 1 mps 743 mmHg 80%
04:00 +16°C° 0 mm 1 mps 744 mmHg 78%
05:00 +18°C° 0 mm 1 mps 744 mmHg 76%
06:00 +19°C° 0 mm 1 mps 744 mmHg 74%
07:00 +18°C° 0 mm 2 mps 744 mmHg 72%
08:00 +19°C° 0 mm 2 mps 744 mmHg 70%
09:00 +20°C° 0 mm 3 mps 744 mmHg 69%
10:00 +21°C° 0 mm 3 mps 744 mmHg 63%
11:00 +22°C° 0 mm 3 mps 744 mmHg 58%
12:00 +25°C° 0 mm 3 mps 744 mmHg 53%
13:00 +25°C° 0 mm 3 mps 744 mmHg 50%
14:00 +26°C° 0 mm 3 mps 744 mmHg 47%
15:00 +27°C° 0 mm 4 mps 744 mmHg 44%
16:00 +26°C° 0 mm 3 mps 744 mmHg 49%
17:00 +25°C° 0 mm 3 mps 744 mmHg 53%
18:00 +24°C° 0 mm 3 mps 744 mmHg 57%
19:00 +22°C° 0 mm 3 mps 745 mmHg 63%
20:00 +20°C° 0 mm 2 mps 745 mmHg 68%
21:00 +18°C° 0 mm 2 mps 746 mmHg 74%
22:00 +18°C° 0 mm 2 mps 746 mmHg 75%
23:00 +18°C° 0 mm 2 mps 746 mmHg 77%

16 July, Thursday

Time Temperature Precipitation Wind Pressure Humidity
00:00 +18°C° 0 mm 1 mps 746 mmHg 78%
01:00 +18°C° 0 mm 1 mps 746 mmHg 79%
02:00 +18°C° 0 mm 1 mps 746 mmHg 80%
03:00 +16°C° 0 mm 1 mps 746 mmHg 82%
04:00 +18°C° 0 mm 1 mps 746 mmHg 81%
05:00 +19°C° 0 mm 1 mps 746 mmHg 80%
06:00 +19°C° 0 mm 1 mps 746 mmHg 79%
07:00 +20°C° 0 mm 2 mps 746 mmHg 75%
08:00 +21°C° 0 mm 2 mps 746 mmHg 71%
09:00 +22°C° 0 mm 3 mps 746 mmHg 67%
10:00 +24°C° 0.1 mm 3 mps 746 mmHg 63%
11:00 +25°C° 0.1 mm 4 mps 746 mmHg 58%
12:00 +26°C° 0.1 mm 4 mps 745 mmHg 54%
13:00 +26°C° 0 mm 4 mps 745 mmHg 53%
14:00 +26°C° 0 mm 4 mps 745 mmHg 53%
15:00 +26°C° 0 mm 5 mps 744 mmHg 52%
16:00 +25°C° 0 mm 4 mps 745 mmHg 55%
17:00 +25°C° 0 mm 4 mps 745 mmHg 58%
18:00 +23°C° 0 mm 4 mps 745 mmHg 60%
19:00 +21°C° 0 mm 4 mps 745 mmHg 66%
20:00 +20°C° 0 mm 3 mps 745 mmHg 71%
21:00 +18°C° 0 mm 3 mps 746 mmHg 76%
22:00 +17°C° 0 mm 3 mps 746 mmHg 79%
23:00 +17°C° 0 mm 3 mps 745 mmHg 82%
Show more